Home > Weather > Aqtobe > Past weeks

Flag for Kazakhstan Weather for the Past 2 Weeks in Aqtobe, Kazakhstan

Now
54 °F

Sunny.


Feels Like: 49 °F
Forecast: 47 / 58 °F
Wind: 17 mph from East

Location: Aktjubinsk

Current Time: Apr 29, 2016 at 3:14:47 PM

Latest Report: Apr 29, 2016 at 2:30 PM


Visibility: 10 mi

Pressure: 30.21 "Hg

Humidity: 47%

Dew Point: 34 °F

Location of AqtobeLocation

Historic Weather in Aqtobe — Graph

°F

Aqtobe Temperature Yesterday

Maximum temperature yesterday: 66 °F (at 2:30 PM)
Minimum temperature yesterday: 45 °F (at 5:30 AM)
Average temperature yesterday: 55 °F

High & Low Weather Summary for the Past Weeks

 TemperatureHumidityPressure
High75 °F (Apr 22, 2:00 PM)100% (Apr 15, 11:30 PM)30.27 "Hg (Apr 15, 11:30 PM)
Low37 °F (Apr 25, 5:30 AM)26% (Apr 26, 4:30 PM)29.59 "Hg (Apr 18, 5:00 AM)
Average56 °F69%29.94 "Hg
* Reported Apr 14 1:00 PM — Apr 29 1:00 PM, Aqtobe, Weather by CustomWeather, © 2016

Note: Actual official high and low records may vary slightly from our data, if they occured in-between our weather recording intervals... More about our weather records

Advertising

Aqtobe Weather History for the Previous 24 Hours

Scroll right to see more
 ConditionsComfort  
Time TempWeatherWind HumidityBarometerVisibility
1:00 PM
Fri, Apr 29
52 °FSunny.17 mph50%30.21 "Hg10 mi
12:30 PM52 °FSunny.22 mph50%30.21 "Hg10 mi
12:00 PM52 °FSunny.20 mph50%30.18 "Hg10 mi
11:30 AM52 °FSunny.17 mph47%30.21 "Hg10 mi
11:00 AM52 °FSunny.20 mph50%30.18 "Hg10 mi
10:00 AM50 °FSunny.17 mph50%30.18 "Hg10 mi
9:30 AM48 °FSunny.13 mph54%30.18 "Hg10 mi
9:00 AM48 °FPassing clouds.13 mph54%30.18 "HgN/A
8:30 AM48 °FSunny.8 mph54%30.15 "Hg10 mi
7:30 AM46 °FSunny.13 mph62%30.15 "Hg10 mi
6:30 AM46 °FSunny.17 mph62%30.15 "Hg10 mi
6:00 AM46 °FSunny.10 mph62%30.15 "Hg10 mi
5:30 AM46 °FPassing clouds.8 mph66%30.15 "HgN/A
5:00 AM46 °FClear.10 mph66%30.15 "Hg10 mi
4:30 AM46 °FClear.15 mph66%30.15 "Hg10 mi
4:00 AM46 °FPassing clouds.10 mph71%30.12 "HgN/A
3:30 AM48 °FClear.13 mph66%30.15 "Hg10 mi
3:00 AM48 °FClear.13 mph66%30.12 "Hg10 mi
2:30 AM48 °FClear.20 mph66%30.12 "Hg10 mi
2:00 AM50 °FClear.15 mph62%30.12 "Hg10 mi
1:30 AM50 °FClear.17 mph62%30.12 "Hg10 mi
1:00 AM50 °FClear.20 mph62%30.12 "Hg10 mi
12:30 AM50 °FClear.15 mph62%30.09 "Hg10 mi
12:00 AM50 °FClear.15 mph62%30.09 "Hg10 mi
11:30 PM
Thu, Apr 28
52 °FClear.15 mph58%30.09 "Hg10 mi
11:00 PM52 °FClear.13 mph62%30.09 "Hg10 mi
10:30 PM52 °FClear.22 mph62%30.09 "Hg10 mi
10:00 PM52 °FClear.20 mph62%30.09 "Hg10 mi
9:30 PM54 °FClear.22 mph58%30.09 "Hg10 mi
9:00 PM54 °FClear.22 mph58%30.07 "Hg10 mi
8:30 PM55 °FClear.22 mph59%30.07 "Hg10 mi
8:00 PM57 °FSunny.26 mph51%30.04 "Hg10 mi
7:30 PM57 °FSunny.22 mph51%30.04 "Hg10 mi
7:00 PM59 °FSunny.24 mph48%30.04 "Hg10 mi
6:30 PM59 °FPartly sunny.22 mph48%30.01 "HgN/A
6:00 PM61 °FPartly sunny.22 mph42%30.01 "HgN/A
5:30 PM64 °FPartly sunny.17 mph34%30.01 "HgN/A
5:00 PM66 °FPartly sunny.15 mph32%30.01 "HgN/A
4:30 PM66 °FPartly sunny.13 mph35%30.01 "HgN/A
4:00 PM66 °FPartly sunny.17 mph35%30.01 "HgN/A
3:30 PM66 °FPartly sunny.17 mph35%30.01 "HgN/A
3:00 PM66 °FBroken clouds.13 mph35%29.98 "HgN/A
Weather by CustomWeather, © 2016

See weather overviewHow to use our weather pages